Regional Weather Roundup
Issued by NWS

Home | Current Version | Previous Version | Graphics & Text | Print | Product List | Glossary On
Versions: 1 2 3 4 5 6 7 8 9 10 11 12 13 14 15 16 17 18 19 20 21 22 23 24 25 26 27 28 29 30 31 32 33 34 35 36 37 38 39 40 41 42 43 44 45 46 47 48 49 50
000
ASUS43 KDTX 050010
RWRMI
MICHIGAN HOURLY REGIONAL WEATHER ROUNDUP
NATIONAL WEATHER SERVICE DETROIT/PONTIAC MI
ISSUED BY NATIONAL WEATHER SERVICE GRAND RAPIDS MI
800 PM EDT FRI SEP 04 2015

NOTE: "FAIR" INDICATES FEW OR NO CLOUDS BELOW 12,000 FEET WITH NO
SIGNIFICANT WEATHER AND/OR OBSTRUCTION TO VISIBILITY.

MIZ047>049-052>055-059>063-066>070-074>076-081>083-050100-
SOUTHEAST LOWER MICHIGAN

CITY           SKY/WX    TMP DP  RH WIND       PRES   REMARKS
ADRIAN         FAIR      75  71  87 NW3       30.04S
6HR MIN TEMP:  75; 6HR MAX TEMP:  86;

ALMA           CLOUDY    73  70  91 CALM      30.04S
ANN ARBOR      FAIR      76  70  82 CALM      30.03F
BAD AXE        RAIN      73  69  89 CALM      30.06R
6HR MIN TEMP:  73; 6HR MAX TEMP:  79;

DETROIT CITY   FAIR      76  69  79 SE5       30.03F
6HR MIN TEMP:  76; 6HR MAX TEMP:  81;

DETROIT        CLOUDY    76  69  79 E3        30.03F
6HR MIN TEMP:  76; 6HR MAX TEMP:  85;

FLINT          CLOUDY    77  69  76 NW5       30.04S
6HR MIN TEMP:  77; 6HR MAX TEMP:  82;

GROSSE ILE     FAIR      73  72  94 E3        30.02S
HILLSDALE      FAIR      73  72  98 CALM      30.05S
HOWELL         FAIR      76  66  72 CALM      30.03F
6HR MIN TEMP:  75; 6HR MAX TEMP:  80;


CITY           SKY/WX    TMP DP  RH WIND       PRES   REMARKS
JACKSON        FAIR      74  68  81 CALM      30.04S
6HR MIN TEMP:  74; 6HR MAX TEMP:  81;

LANSING        FAIR      74  68  81 CALM      30.04S
6HR MIN TEMP:  74; 6HR MAX TEMP:  79;

MASON          MOCLDY    75  67  76 CALM      30.04S
MONROE         FAIR      74  71  90 CALM      30.01F
6HR MIN TEMP:  73; 6HR MAX TEMP:  82;

MT. CLEMENS    MOCLDY    74  69  85 SE7       30.03S
6HR MIN TEMP:  74; 6HR MAX TEMP:  79;

PONTIAC        CLOUDY    75  67  76 NW5       30.04F
6HR MIN TEMP:  75; 6HR MAX TEMP:  81;

PORT HOPE        N/A     72  70  93 E6        30.05R
6HR MIN TEMP:  72; 6HR MAX TEMP:  74;

PORT HURON     FAIR      73  68  83 S3        30.05S
TRI CITIES     CLOUDY    75  70  84 CALM      30.04F
6HR MIN TEMP:  74; 6HR MAX TEMP:  78;

YPSILANTI      FAIR      77  71  82 SE3       30.03F
6HR MIN TEMP:  77; 6HR MAX TEMP:  87;

$$
MIZ043>046-050>051-056>058-064>065-071>073-077>080-050100-
SOUTHWEST LOWER MICHIGAN

CITY           SKY/WX    TMP DP  RH WIND       PRES   REMARKS
BATTLE CREEK   FAIR      77  67  71 N3        30.04S
6HR MIN TEMP:  77; 6HR MAX TEMP:  82;

BENTON HARBOR  FAIR      70  66  87 CALM      30.04S
6HR MIN TEMP:  70; 6HR MAX TEMP:  76;

BIG RAPIDS     FAIR      71  68  91 CALM      30.04S
6HR MIN TEMP:  70; 6HR MAX TEMP:  77;

COLDWATER      FAIR      74  71  91 CALM      30.04R
6HR MIN TEMP:  74; 6HR MAX TEMP:  81;

HOLLAND        FAIR      73  66  78 CALM      30.04S
6HR MIN TEMP:  73; 6HR MAX TEMP:  77;

GRAND RAPIDS   MOCLDY    75  69  81 NE3       30.03S
6HR MIN TEMP:  75; 6HR MAX TEMP:  80;

KALAMAZOO      FAIR      77  66  68 W5        30.03F
6HR MIN TEMP:  77; 6HR MAX TEMP:  83;

MARSHALL       MOCLDY    74  68  80 CALM      30.03S
6HR MIN TEMP:  74; 6HR MAX TEMP:  83;

MOUNT PLEASANT CLOUDY    73  70  89 CALM      30.03S
6HR MIN TEMP:  72; 6HR MAX TEMP:  75; 6HR PCP:  0.02;

MUSKEGON       FAIR      73  67  81 SW6       30.03S
6HR MIN TEMP:  70; 6HR MAX TEMP:  77;

STURGIS        FAIR      75  72  88 S5        30.03S
$$
MIZ016>042-050100-
NORTHERN LOWER MICHIGAN

CITY           SKY/WX    TMP DP  RH WIND       PRES   REMARKS
ALPENA         CLOUDY    72  65  78 E5        30.08F
6HR MIN TEMP:  72; 6HR MAX TEMP:  79;

BEAVER ISLAND  FAIR      71  67  87 E7        30.06S
BELLAIRE       LGT RAIN  71  67  89 CALM      30.05S
6HR MIN TEMP:  71; 6HR MAX TEMP:  78;

CADILLAC       FAIR      70  68  94 CALM      30.05F
CHARLEVOIX     CLOUDY    74  70  86 E7        30.08S
GAYLORD        LGT RAIN  70  70 100 E3        30.09R FOG
6HR MIN TEMP:  70; 6HR MAX TEMP:  75; 6HR PCP:  0.21;

HOUGHTON LAKE  MOCLDY    71  67  87 E5        30.07S
6HR MIN TEMP:  71; 6HR MAX TEMP:  74;

MANISTEE       FAIR      70  66  88 NW3       30.04S
OSCODA         CLOUDY    71  67  89 NE9       30.05F
6HR MIN TEMP:  71; 6HR MAX TEMP:  76;

PELLSTON       FAIR      73  67  81 E3        30.07S
6HR MIN TEMP:  73; 6HR MAX TEMP:  78; 6HR PCP:  0.01;

TRAVERSE CITY  MOCLDY    74  68  81 CALM      30.03S
6HR MIN TEMP:  72; 6HR MAX TEMP:  75; 6HR PCP: TRACE;

LUDINGTON      FAIR      73  69  86 CALM      30.04S
6HR MIN TEMP:  72; 6HR MAX TEMP:  76;

$$
MIZ007>008-015-050100-
EASTERN UPPER MICHIGAN

CITY           SKY/WX    TMP DP  RH WIND       PRES   REMARKS
KINROSS        FAIR      73  68  83 SE9       30.09S
6HR MIN TEMP:  73; 6HR MAX TEMP:  79;

MACKINAC ISLAN FAIR      66  65  94 E8        30.08S
6HR MIN TEMP:  66; 6HR MAX TEMP:  71;

NEWBERRY       FAIR      74  67  78 SE9       30.08R
6HR MIN TEMP:  74; 6HR MAX TEMP:  82;

S. S. MARIE    FAIR      74  65  73 SE9       30.08S
6HR MIN TEMP:  74; 6HR MAX TEMP:  80;

$$
MIZ004>006-011>014-085-050100-
CENTRAL UPPER MICHIGAN

CITY           SKY/WX    TMP DP  RH WIND       PRES   REMARKS
MANISTIQUE     CLOUDY    71  66  84 E5        30.06S
6HR MIN TEMP:  71; 6HR MAX TEMP:  78;

ESCANABA       FAIR      72  66  83 SE6       30.04R
6HR MIN TEMP:  72; 6HR MAX TEMP:  79;

MENOMINEE      FAIR      70  63  78 E3        30.04S
6HR MIN TEMP:  70; 6HR MAX TEMP:  73;

$$
MIZ001>003-009>011-084-050100-
WESTERN UPPER MICHIGAN

CITY           SKY/WX    TMP DP  RH WIND       PRES   REMARKS
IRON MOUNTAIN  FAIR      75  65  70 SE6       30.05R
6HR MIN TEMP:  75; 6HR MAX TEMP:  83;

HOUGHTON       FAIR      66  58  75 E8        30.05S
6HR MIN TEMP:  66; 6HR MAX TEMP:  79;

COPPER HARBOR    N/A     71  58  63 CALM      30.04F
6HR MIN TEMP:  71; 6HR MAX TEMP:  81;

IRONWOOD       FAIR      81  66  61 E6        29.97S
6HR MIN TEMP:  81; 6HR MAX TEMP:  84;

$$

ABBREVIATIONS USED IN REMARKS
   TC - TEMPERATURE IN CELSIUS
  WCI - WIND CHILL INDEX
   HX - HEAT INDEX
  VSB - VISIBILITY



USA.gov is the U.S. government's official web portal to all federal, state and local government web resources and services.